Location: Hawks Ness
(60.2333°N, 1.1667°W)
Time: 05:52:56
(UTC+00:00)

Cosmos 1726 - Pass Details

Date: 03 February 2020
Orbit: 483 x 499 km, 82.5° (Epoch: 27 February)

Event Time Altitude Azimuth Distance (km) Brightness Sun altitude
Exits shadow 06:13:11 12° 335° (NNW) 1,540 4.3 -15.1°
Drops below altitude 10° 06:13:50 10° 344° (NNW) 1,682 4.6 -15.0°
Sets 06:16:40 0° 8° (N) 2,568 5.7 -14.6°
